{"data":{"norad_id":52602,"epoch":"2026-09-20T03:42:58.472352Z","epoch_age_seconds":93122,"freshness":"FRESH","line1":"1 52602U 22052E   26263.15484343 -.00001763  00000+0 -39639-4 0  9999","line2":"2 52602  53.1601 117.1789 0000851 108.7136 251.3959 15.35402499241134","mean_motion":15.35402499,"eccentricity":8.51e-5,"inclination_deg":53.1601,"raan_deg":117.1789,"arg_perigee_deg":108.7136,"mean_anomaly_deg":251.3959,"bstar":-3.9639e-5,"rev_number":24113,"period_min":93.786482758616,"perigee_km":459.14332118213,"apogee_km":460.30712533253,"semimajor_km":6837.8622232573,"source":"CELESTRAK","updated_at":"2026-09-20T09:00:40.068187Z"}}